Regional Weather Roundup
Issued by NWS

Home | Current Version | Previous Version | Graphics & Text | Print | Product List | Glossary On
Versions: 1 2 3 4 5 6 7 8 9 10 11 12 13 14 15 16 17 18 19 20 21 22 23 24 25 26 27 28 29 30 31 32 33 34 35 36 37 38 39 40 41 42 43 44 45 46 47 48 49 50
000
ASUS43 KOAX 291602
RWRNE

WEATHER ROUNDUP FOR NEBRASKA
NATIONAL WEATHER SERVICE OMAHA NE
1100 AM CDT WED OCT 29 2014

NOTES: SATELLITE DATA IS BEING USED TO AUGMENT CLOUD COVER ABOVE
       12000 FEET.
       "FAIR" INDICATES FEW OR NO CLOUDS BELOW 12,000 FEET WITH NO
       SIGNIFICANT WEATHER AND/OR OBSTRUCTIONS TO VISIBILITY.

  * THESE STATIONS DO NOT REPORT WEATHER SUCH AS RAIN...SNOW OR FOG.

NEZ001>004-019>022-054>056-291700-
NEBRASKA PANHANDLE

CITY           SKY/WX    TMP DP  RH WIND       PRES   REMARKS
SCOTTSBLUFF    SUNNY     42  29  59 CALM      30.11F
ALLIANCE       SUNNY     46  32  58 W9        30.09F
CHADRON        SUNNY     43  28  55 SW6       30.07F
KIMBALL        SUNNY     56  25  30 SW10      30.13S
SIDNEY         SUNNY     53  26  35 W9        30.14F
$$

NEZ057>060-069>072-079>082-291700-
SOUTHWEST NEBRASKA

CITY           SKY/WX    TMP DP  RH WIND       PRES   REMARKS
NORTH PLATTE   SUNNY     46  27  47 S5        30.14F
IMPERIAL       SUNNY    N/A N/A N/A VRB3      30.15F
LEXINGTON      SUNNY     47  30  50 S8        30.18F
MCCOOK         SUNNY     44  26  49 S3        30.17F
OGALLALA       SUNNY     41  28  59 SW6       30.13F
$$

NEZ005>010-023>029-035>040-094-291700-
NORTH CENTRAL NEBRASKA

CITY           SKY/WX    TMP DP  RH WIND       PRES   REMARKS
VALENTINE      SUNNY     47  26  44 S9        30.09F
AINSWORTH      SUNNY     47  25  41 S12       30.11F
BROKEN BOW     SUNNY     50  28  42 S12       30.15F
O`NEILL        SUNNY     44  34  66 S6        30.17F
ORD            SUNNY     40  30  67 E5        30.17F
THEDFORD       SUNNY     50  24  36 S13       30.11F
$$

NEZ041-046>049-061>064-073>077-083>087-291700-
SOUTH CENTRAL NEBRASKA

CITY           SKY/WX    TMP DP  RH WIND       PRES   REMARKS
GRAND ISLAND   SUNNY     46  32  58 SE5       30.22F
AURORA         SUNNY     46  33  61 S6        30.22F
HASTINGS       SUNNY     46  30  53 S9        30.21F
HEBRON         SUNNY     47  32  55 SE7       30.25S
HOLDREGE       SUNNY     49  28  43 S13       30.19S
KEARNEY *      SUNNY     45  30  57 SE8       30.20F
YORK           SUNNY     45  32  61 SE3       30.24S
$$

NEZ011>018-030>034-042>045-291700-
NORTHEAST NEBRASKA

CITY           SKY/WX    TMP DP  RH WIND       PRES   REMARKS
NORFOLK        SUNNY     42  33  70 CALM      30.21F
ALBION         SUNNY     41  32  71 SE3       30.21F
BLAIR          SUNNY     43  33  67 CALM      30.24S
COLUMBUS *       N/A    N/A N/A N/A MISG        N/A
FREMONT        SUNNY     44  35  71 CALM      30.25F
TEKAMAH        SUNNY     46  32  58 CALM      30.24F
WAYNE          SUNNY     42  32  68 CALM      30.23S
$$

NEZ050>053-065>068-078-088>093-291700-
SOUTHEAST NEBRASKA

CITY           SKY/WX    TMP DP  RH WIND       PRES   REMARKS
LINCOLN        SUNNY     44  34  67 CALM      30.27S
OMAHA EPPLEY   SUNNY     45  33  63 CALM      30.27S
BEATRICE       SUNNY     46  37  69 CALM      30.25F
FALLS CITY     SUNNY     48  36  63 VRB5      30.26F
NEBRASKA CITY  SUNNY     47  30  51 N6        30.26S
PLATTSMOUTH    SUNNY     45  33  63 N3        30.25S
$$

NEZ044-045-051>053-067-291700-
OMAHA AREA

CITY           SKY/WX    TMP DP  RH WIND       PRES   REMARKS
OMAHA EPPLEY   SUNNY     45  33  63 CALM      30.27S
BLAIR          SUNNY     43  33  67 CALM      30.24S
FREMONT        SUNNY     44  35  71 CALM      30.25F
MILLARD        SUNNY     45  33  62 CALM      30.25F
OFFUTT AFB     SUNNY     45  34  65 W5        30.25S
PLATTSMOUTH    SUNNY     45  33  63 N3        30.25S
WAHOO          FAIR      45  32  60 N3        30.24S
$$



USA.gov is the U.S. government's official web portal to all federal, state and local government web resources and services.